Flag for Kiribati Weather past 2 weeks in Kiritimati, Christmas Island, Kiribati

Now
88 °F

Passing clouds.


Feels Like: 100 °F
Forecast: 76 / 85 °F
Wind: 12 mph from East

Location: Christmas / Cassidy

Current Time: Apr 28, 2015 at 12:36:20 PM

Latest Report: Apr 28, 2015 at 12:00 PM


Visibility: N/A

Pressure: 29.83 "Hg

Humidity: 70%

Dew point: 77 °F

Location of KiritimatiLocation

Historic Weather in Kiritimati — Graph

°F

Kiritimati temperature yesterday

Maximum temperature yesterday: 84 °F (at 4:00 PM)
Minimum temperature yesterday: 79 °F (at 4:00 AM)
Average temperature yesterday: 81 °F

Past Weeks' High & Low Weather Summary

 TemperatureHumidityPressure
High88 °F (Apr 13, 1:00 PM)100% (Apr 15, 8:00 AM)29.92 "Hg (Apr 15, 8:00 AM)
Low61 °F (Apr 25, 3:00 AM)70% (Apr 13, 1:00 PM)27.25 "Hg (Apr 23, 10:00 PM)
Average81 °F88%29.79 "Hg
* Reported Apr 13 10:00 AM — Apr 28 10:00 AM, Kiritimati, Weather by CustomWeather, © 2015

Note: Actual official high and low records may vary slightly from our data, if they occured in-between our weather recording intervals... More about our weather records

Advertising

Kiritimati weather history for previous 24 hours

 ConditionsComfort  
Time TempWeatherWind HumidityBarometerVisibility
10:00 AM
Tue, Apr 28
86 °FScattered clouds.5 mph75%29.86 "HgN/A
9:00 AM84 °FPartly sunny.No wind79%29.89 "HgN/A
8:00 AM82 °FPartly sunny.No wind84%29.86 "HgN/A
7:00 AM79 °FBroken clouds.2 mph94%29.83 "HgN/A
6:00 AM77 °FBroken clouds.No wind94%29.83 "HgN/A
5:00 AM77 °FBroken clouds.2 mph100%29.80 "HgN/A
4:00 AM79 °FPartly cloudy.5 mph94%29.80 "HgN/A
3:00 AM79 °FPassing clouds.5 mph94%29.80 "HgN/A
2:00 AM81 °FPassing clouds.No wind89%29.80 "HgN/A
1:00 AM79 °FPassing clouds.5 mph94%29.83 "HgN/A
12:00 AM79 °FPassing clouds.2 mph94%29.83 "HgN/A
10:00 PM
Mon, Apr 27
81 °FPassing clouds.No wind89%29.86 "HgN/A
8:00 PM81 °FPassing clouds.2 mph89%29.80 "HgN/A
7:00 PM81 °FPassing clouds.2 mphN/A29.77 "HgN/A
6:00 PM82 °FPassing clouds.5 mph79%29.74 "HgN/A
5:00 PM82 °FPassing clouds.5 mph79%29.74 "HgN/A
4:00 PM84 °FBroken clouds.2 mph74%29.74 "HgN/A
2:00 PM81 °FScattered showers. Broken clouds.9 mph89%29.77 "HgN/A
12:00 PM82 °FScattered showers. Cloudy.9 mph89%29.86 "HgN/A
Weather by CustomWeather, © 2015

See weather overviewHow to use our weather pages